Location: Chervonnoye
(48.6000°N, 34.4000°E)
Time: 06:06:00
(UTC+00:00)

BEESAT 3 - Pass Details

Date: 06 December 2021
Orbit: 472 x 512 km, 64.9° (Epoch: 22 January)

Event Time Altitude Azimuth Distance (km) Brightness Sun altitude
Rises 16:10:25 0° 196° (SSW) 2,543 ? -22.7°
Reaches altitude 10° 16:12:37 10° 188° (S) 1,675 ? -23.0°
Enters shadow 16:13:51 19° 178° (S) 1,234 ? -23.2°
